Location: Mannheim
(49.4880°N, 8.4650°E)
Time: 04:47:44
(UTC+02:00)

ISS - Pass Details

Date: 10 July 2024
Orbit: 409 x 423 km, 51.6° (Epoch: 24 July)

Event Time Altitude Azimuth Distance (km) Brightness Sun altitude
Rises 04:37:59 0° 287° (WNW) 2,349 -0.2 -7.3°
Reaches altitude 10° 04:40:16 10° 274° (W) 1,486 -1.3 -7.0°
Maximum altitude 04:43:05 25° 216° (SW) 869 -2.7 -6.7°
Drops below altitude 10° 04:45:54 10° 158° (SSE) 1,486 -1.2 -6.4°
Sets 04:48:12 0° 145° (SE) 2,349 -0.1 -6.1°
